Время (UTC), дата Ветер
(°,м/с) 
Видим.   Явления Облачность Т
(°С)
Тd
(°С)
f(%) Тe
(°С)
Pmin
(гПа)
dP
(гПа)
Po
(мм)
O2
(г/м3)
Тmin Tmax R s Состояние
почвы
00 01.02.18 270 (З) 12-18{18}  20000 м  {снег}  8/8 300 м 
[St]
-2.1 -4.4 84 -8  1020  1.7  723  294           
03 01.02.18 270 (З) 12  20000 м  в посл. час снег  8/8 300 м 
[St]
-2 -5.8 75 -8  1020.8  0.7  723  294  -2.6    0.3     
06 01.02.18 270 (З) 9-15{17}  20000 м  {снег}  8/3 300 м средняя 
[Sc|Ac trans]
-1.5 -4.8 78 -6  1023.2  2.4  725  294           
09 01.02.18 280 (З) 10-16{16}  20000 м    6/6 600 м 
[Sc]
-0.2 -4.3 74 -5  1024.1  1.1  726  293           
12 01.02.18 280 (З) 8-13{16}  20000 м    6/5 600 м верхняя 
[Sc|Ci fib]
+1.5 -4.2 66 -2  1024.2  0.4  726  292           
15 01.02.18 280 (З) 4{14}  20000 м    6/0 верхняя 
[Ci fib]
+0.1 -4.8 70 -2  1025.8  1.2  727  293    +1.7  0.0     
18 01.02.18 260 (З) 20000 м    6/0 верхняя 
[Ci fib]
-2.2 -5 81 -3  1026.7  0.3  728  296           
21 01.02.18 180 (Ю) 20000 м    8/0 верхняя 
[Ci fib]
-2.6 -5.4 81 -2  1026.8  728  297           
00 02.02.18 200 (Ю) 20000 м    3/0 верхняя 
[Ci fib]
-3.2 -7.3 73 -4  1026.8  0.1  728  297           
03 02.02.18 170 (Ю) 20000 м    ясно 
-2.5 -4.6 85 -5  1026.4  -0.2  727  296  -5.3      11  неравномерный
мокрый или
старый снег
100% 
06 02.02.18 160 (Ю) 20000 м    ясно 
+0.1 -4.1 73 -2  1026.4  0.5  728  294           
09 02.02.18 140 (ЮВ) 20000 м    3/0 средняя 
[Ac trans]
+4.9 -3.8 53 +3  1024.1  -1.2  727  288           
12 02.02.18 140 (ЮВ) 20000 м    6/0 средняя 
[Ac trans]
+6 -4.5 47 +5  1022.3  -1.5  726  287           
15 02.02.18 130 (ЮВ) 20000 м    4/0 средняя, верхняя 
[Ac trans|Ci fib]
+2.1 -4.8 60 -1  1022.8  -0.3  726  291    +6.8       
18 02.02.18 160 (Ю) 20000 м    10/0 средняя, верхняя 
[Ac As|Ci]
+3.7 -6.5 47 +2  1022  -0.5  725  289           
21 02.02.18 200 (Ю) 20000 м    10/0 верхняя 
[Cs]
+3.7 -5.3 52 +2  1020.9  -1  724  288           
00 03.02.18 240 (ЮЗ) 20000 м    10/0 средняя, верхняя 
[Ac trans|Cs]
+7.7 -6.3 36 +9  1020  0.1  724  284           
03 03.02.18 260 (З) 20000 м  в посл. час дождь  10/4 1000 м средняя 
[Sc|As op]
+5.1 -1.5 62 +3  1021.5  0.9  725  287  +1.8    0.0     
06 03.02.18 190 (Ю) 20000 м    10/3 1000 м средняя 
[Sc|Ac und]
+5.5 +0.3 69 +5  1021.2  -0.1  725  286           
09 03.02.18 160 (Ю) 20000 м    10/4 1000 м средняя 
[Sc|Ac und]
+7.1 +1.5 68 +6  1020.4  -0.5  725  284           
12 03.02.18 140 (ЮВ) 10 км  слаб. дождь  10/5 1000 м средняя 
[Sc|Ac und]
+6.3 +2.3 76 +5  1021  0.4  725  285           
15 03.02.18 160 (Ю) 20000 м  слаб. дождь  10/5 1000 м средняя 
[Sc|Ac und]
+5.2 +2.9 85 +4  1021.6  0.4  725  286    +8.9  0.9     
18 03.02.18 140 (ЮВ) 20000 м  {дождь}  6/3 1000 м средняя 
[Sc|Ac und]
+4.7 +1.7 81 +3  1021.1  -0.6  725  287           
21 03.02.18 140 (ЮВ) 20000 м    6/0 средняя 
[Ac trans]
+5.8 -0.5 64 +4  1019.2  -1.6  724  285           
00 04.02.18 120 (ЮВ) 20000 м    8/0 средняя 
[Ac trans]
+4.9 -1.3 64 +3  1018.1  -1.2  723  286           
03 04.02.18 260 (З) 20000 м  в посл. час дождь  10/4 1000 м средняя 
[Sc|As op]
+5.1 -1.5 62 +3  1021.5  0.9  725  287  +1.8    0.0     
06 04.02.18 140 (ЮВ) 20000 м    10/0 средняя 
[Ac und]
+6.8 -7.2 36 +5  1016  -1  721  284  +3.9         
09 04.02.18 180 (Ю) 20000 м    10/0 средняя 
[Ac und]
+7.8 -4.5 41 +7  1014.3  -1.4  720  283           
12 04.02.18 140 (ЮВ) 20000 м    10/3 1000 м средняя 
[Sc|Ac und]
+8.2 -2.6 46 +7  1012.3  -1.8  719  281           
15 04.02.18 140 (ЮВ) 20000 м    9/3 1000 м средняя 
[Sc|Ac trans]
+6.8 -2.2 53 +7  1012.7  -0.1  719  283    +9.1       
18 04.02.18 110 (В) 20000 м  слаб. дождь  10/8 600 м средняя 
[Sc|Ac und]
+4.4 +0.3 75 +3  1010.7  -2.3  717  284           
21 04.02.18 250 (З) 20000 м  {дождь}  10/5 1000 м средняя 
[Sc|Ac und]
+3.6 -0.1 77 +3  1009.6  -1.2  716  285           
00 05.02.18 280 (З) 20000 м  в посл. час ливневой дождь  10/5 600 м кучево-дожд., средняя 
[Cb cap|Ac und]
+5.5 +1.7 76 +5  1009.1  -0.1  716  283           
03 05.02.18 260 (З) 20000 м  слаб. ливневой дождь  10/8 1000 м кучево-дожд., средняя 
[Cb cap|Ac und]
+7.3 +5.7 90 +5  1011  2.2  718  281  +2.8    0.6     
06 05.02.18 280 (З) 6{14}  10 км  слаб. ливневой дождь  10/6 300 м кучево-дожд., средняя 
[Cb cap|Ac und]
+2.4 +1.1 91 -1  1016.7  4.4  721  288  +2.1         
09 05.02.18 270 (З) 9-12{13}  20000 м  {ливн. осадки}  10/8 300 м кучево-дожд., средняя 
[Cb cap|Ac und]
+1.6 -0.6 85 -3  1019  723  290           
12 05.02.18 280 (З) 6{12}  20000 м  {ливн. осадки}  10/6 300 м средняя 
[Sc|Ac und]
+0.2 -2.2 84 -3  1020.3  0.9  724  292           
15 05.02.18 290 (З) 5{11}  20000 м    10/6 300 м средняя 
[Sc|Ac und]
-0.3 -3.2 81 -3  1022.3  1.8  725  293    +7.4     
18 05.02.18 280 (З) 20000 м    10/5 300 м 
[St]
-0.4 -3.1 82 -1  1024.1  1.7  726  293           
21 05.02.18 260 (З) 20000 м    10/6 300 м средняя 
[St|Ac und]
-0.8 -3.1 84 1025.6  1.2  727  294           
00 06.02.18 250 (З) 20000 м    10/5 600 м средняя 
[Sc|Ac und]
-0.3 -3.1 81 -2  1027  1.4  728  294           
03 06.02.18 180 (Ю) 20000 м    10/6 600 м средняя 
[Sc|Ac und]
-0.7 -2.3 89 -2  1027.5  0.5  728  294  -0.8      мокрый или
старый снег
10-40% 
06 06.02.18 130 (ЮВ) 20000 м    8/0 средняя 
[Ac trans]
+1 -1.6 83 -1  1028.1  0.9  729  293  -1.6         
09 06.02.18 140 (ЮВ) 20000 м    8/3 1000 м средняя 
[Sc|Ac trans]
+3.3 -0.8 74 +1  1027.6  729  290           
12 06.02.18 140 (ЮВ) 20000 м    8/4 600 м верхняя 
[Sc|Ci fib]
+4.5 -1 67 +2  1027.1  -0.2  729  289           
15 06.02.18 130 (ЮВ) 4{10}  20000 м    6/3 600 м средняя 
[Sc|Ac trans]
+0.4 -2 84 -2  1030  1.9  730  294    +4.6       
18 06.02.18 130 (ЮВ) 10 км    3/0 средняя 
[Ac trans]
-1.4 -2.1 95 -5  1031  0.6  731  296           
21 06.02.18 150 (ЮВ) 20000 м    6/6 300 м 
[St]
-0.3 -1.3 93 -4  1030.9  0.2  731  295           
00 07.02.18 130 (ЮВ) 20000 м    3/0 
-1.1 -2.5 90 -4  1031.4  0.3  731  296           
03 07.02.18 150 (ЮВ) 20000 м    3/0 средняя 
[Ac trans]
-1.1 -2.2 92 -4  1031.8  0.4  731  296  -2      <0.5  мокрый или
старый снег
10-40% 
06 07.02.18 150 (ЮВ) 20000 м    4/0 верхняя 
[Ci fib]
+0.2 -1.7 87 -2  1032.8  1.2  732  295           
09 07.02.18 040 (СВ) 20000 м    1/0 средняя 
[Ac trans]
+7.4 -0.1 59 +7  1030.9  -0.4  732  287           
12 07.02.18 080 (В) 20000 м    ясно 
+7.6 +0.7 62 +7  1030.4  -0.4  732  287           
15 07.02.18 070 (В) 20000 м    3/0 средняя 
[Ac trans]
+1.5 +0.3 92 1032.3  -0.4  732  293    +8.1       
18 07.02.18 110 (В) 4000 м  в посл. час туман [диам. гололёда 1 мм]  3/1 300 м средняя 
[St|Ac trans]
-1.4 -2 96 -3  1032.5  -0.4  732  297           
21 07.02.18 130 (ЮВ) 0200 м  туман [диам. гололёда 2 мм]  ?/?  
-1 -1.5 96 -4  1031.8  -0.6  731  296           
00 08.02.18 140 (ЮВ) 0200 м  туман [диам. гололёда 3 мм]  ?/?  
-1 -1.5 96 -5  1031  -0.8  731  296           
03 08.02.18 130 (ЮВ) 0200 м  туман  ?/?  
-1 -1.4 97 -5  1029.5  -0.8  730  295  -2.6      <0.5  мокрый или
старый снег
10-40% 
06 08.02.18 140 (ЮВ) 1000 м  дымка{туман} [диам. гололёда 4 мм]  10/10 100 м 
[St]
-1.4 -1.8 97 -5  1028.7  -0.8  729  295           
09 08.02.18 130 (ЮВ) 7{10}  4000 м  дымка [диам. гололёда 2 мм]  10/10 200 м 
[St]
-0.4 -0.9 96 -4  1026.7  -1.7  728  294           
12 08.02.18 110 (В) 8-12{12}  4000 м    10/10 200 м 
[St]
-0.4 -1.5 92 -5  1024.5  -2.1  726  293           
15 08.02.18 130 (ЮВ) 4000 м  дымка  10/10 200 м 
[St]
-0.8 -1.4 96 -5  1023.6  -0.9  726  293    +0.2       
18 08.02.18 110 (В) 7{13}  10 км    10/10 300 м 
[St]
+1.3 +0.1 92 -2  1020.4  -2.6  724  290           
21 08.02.18 130 (ЮВ) 6{11}  10 км    10/10 300 м 
[St]
+1 -0.4 90 -2  1018.6  -1.8  722  290           
00 09.02.18 120 (ЮВ) 8-12{14}  0200 м  туман  ?/?  
+0.1 -0.4 96 -4  1017.1  -1.6  721  290           
03 09.02.18 140 (ЮВ) 4000 м  дымка{туман}  10/10 100 м 
[St]
+0.4 -0 97 -3  1015.6  -1.4  720  290  -0.8         
06 09.02.18 150 (ЮВ) 6{10}  10 км  {туман}  10/10 100 м 
[St]
+0.9 +0.4 96 -2  1015.8  0.3  720  289           
09 09.02.18 120 (ЮВ) 4{10}  10 км  в посл. час дождь  10/10 200 м 
[St]
+2.6 +1.1 90 +1  1015.7  0.2  721  287           
12 09.02.18 130 (ЮВ) 4000 м  дымка{дождь}  10/10 100 м 
[St]
+2.8 +2 94 +1  1016.3  0.6  721  287           
15 09.02.18 140 (ЮВ) 0200 м  слаб. ливневой дождь{туман}  ?/?  
+2.4 +1.9 97 1016.8  0.4  721  288    +2.8     
18 09.02.18 130 (ЮВ) 4000 м  дымка{ливн. осадки, туман}  10/6 200 м средняя 
[St|Ac und]
+2.3 +1.8 96 +2  1017.8  0.9  722  288           
21 09.02.18 050 (СВ) 0200 м  туман  10/10 200 м 
[St]
+1.7 +1.2 96 +1  1018.3  0.4  722  289           
00 10.02.18 030 (СВ) 0200 м  туман  ?/?  
+1.2 +0.7 96 +2  1019.2  0.8  723  290           
03 10.02.18 170 (Ю) 2000 м  дымка{туман}  10/6 200 м средняя 
[St|Ac und]
+1.6 +1.1 96 +2  1019.6  0.4  723  289  +0.9       
06 10.02.18 200 (Ю) 0500 м  туман  10/10 200 м 
[St]
+2.2 +1.8 97 +3  1020.5  724  289           
09 10.02.18 090 (В) 2000 м  дымка{туман}  10/10 200 м 
[St]
+4.2 +3.8 97 +3  1020.2  0.1  724  287           
12 10.02.18 080 (В) 20000 м  {туман}  8/8 300 м 
[St]
+5.9 +3.5 85 +4  1019.6  -0.2  724  285           
15 10.02.18 090 (В) 20000 м    10/10 200 м 
[St]
+3.4 +2.6 94 +1  1020.5  0.3  724  288    +6.2       
18 10.02.18 130 (ЮВ) 20000 м    10/10 200 м 
[St]
+2 +1.1 94 -1  1020.4  -0.4  724  289           
21 10.02.18 120 (ЮВ) 6{10}  20000 м    10/10 200 м 
[St]
+1.7 +0.9 94 -1  1019.5  -0.8  723  289           
00 11.02.18 110 (В) 10 км    10/10 100 м 
[St]
+0.5 +0 96 -3  1018.6  -1.1  722  290           
03 11.02.18 100 (В) 0200 м  туман  ?/?  
-0.3 -0.7 97 -4  1016.9  -1.7  721  291  -0.3         
06 11.02.18 100 (В) 8{10}  0050 м  туман  ?/?  
-0.2 -0.6 97 -4  1015.9  -1  720  290  -0.5         
09 11.02.18 100 (В) 11-13{14}  4000 м  дымка{туман}  10/10 100 м 
[St]
+0.7 +0.2 96 -4  1013.9  -1.7  719  289           
12 11.02.18 100 (В) 11-14{14}  0200 м  туман  ?/?  
+0.5 -0 96 -5  1010.8  -2.9  717  288           
15 11.02.18 110 (В) 4000 м  дымка{туман}  10/10 100 м 
[St]
+0.6 -0.1 95 -4  1009.7  -1  716  288    +1.2       
18 11.02.18 120 (ЮВ) 8-11{16}  10 км  {туман}  10/10 200 м 
[St]
+0.6 -0.1 95 -4  1009.1  -0.6  716  288           
21 11.02.18 120 (ЮВ) 10-14{15}  10 км    10/10 100 м 
[St]
-0.5 -0.9 97 -5  1007.5  -1.7  714  288           
00 12.02.18 120 (ЮВ) 8-13{14}  20000 м    10/10 200 м 
[St]
-0.9 -1.7 94 -5  1007.5  0.1  714  289           
03 12.02.18 110 (В) 20000 м    10/10 100 м 
[St]
-1.4 -1.8 97 -6  1007.6  714  289  -1.4    0.0     
06 12.02.18 140 (ЮВ) 7-10  10 км  {туман}  10/10 100 м 
[St]
-1.2 -1.6 97 -5  1009.3  1.6  716  290  -1.8         
09 12.02.18 130 (ЮВ) 5{11}  20000 м  в посл. час снег  10/10 200 м 
[St]
+0.9 -0.4 91 -2  1009.2  0.4  716  287           
12 12.02.18 130 (ЮВ) 4000 м  слаб. ливневой дождь{снег}  10/8 100 м кучево-дожд., средняя 
[Cb cap|Ac und]
+0 -0.5 96 -4  1009.7  0.3  716  288           
15 12.02.18 130 (ЮВ) 10 км  {ливн. осадки}  10/8 100 м средняя 
[St|Ac und]
-0.5 -0.9 97 -3  1011.2  1.3  717  289    +0.9     
18 12.02.18 130 (ЮВ) 1000 м  дымка{ливн. осадки}  10/10 100 м 
[Sc diur, vesp]
-1 -1.3 98 -4  1012.3  718  290           
21 12.02.18 120 (ЮВ) 4000 м  слаб. ливневой дождь [диам. гололёда 1 мм]  10/8 100 м кучево-дожд., средняя 
[Cb cap|Ac und]
-0.5 -0.9 97 -3  1012.9  0.6  718  290           
00 13.02.18 120 (ЮВ) 10 км  {ливн. осадки} [диам. гололёда 3 мм]  10/8 300 м средняя 
[St|Ac und]
-0.4 -0.8 97 -3  1013.1  0.3  718  290           
03 13.02.18 130 (ЮВ) 4000 м  дождь со снегом  10/10 100 м 
[Frnb|Ns]
-0.9 -1.3 97 1014.6  1.3  719  291  -1.1       
06 13.02.18 140 (ЮВ) 2000 м  снег{дождь} [диам. гололёда 5 мм]  10/10 100 м 
[Ns]
-0.6 -1 97 1015.9  1.2  720  291           
09 13.02.18 130 (ЮВ) 0200 м  слаб. снег{туман} [диам. гололёда 5 мм]  ?/?  
-0 -0.5 96 +1  1016.7  0.9  721  290           
12 13.02.18 120 (ЮВ) 10 км  {снег, туман}  10/8 100 м средняя 
[St|Ac und]
+0.4 -0.7 92 +1  1016.8  0.2  721  290           
15 13.02.18 160 (Ю) 0500 м  туман  ?/?  
-0.7 -1.2 96 -2  1018.2  1.1  722  292    +0.7  12     
18 13.02.18 150 (ЮВ) 4000 м  дымка{туман}  10/10 100 м 
[St]
-1.6 -2 97 -3  1019.4  0.9  723  293           
21 13.02.18 180 (Ю) 2000 м  снег  10/10 300 м 
[]
-0.6 -1.1 96 1020  0.7  723  292           
00 14.02.18 тихо ()   4000 м  слаб. дождь{снег} [диам. гололёда 3 мм]  10/8 300 м средняя 
[Sc|Ac und]
-0 -0.4 97 1020.7  0.7  724  292           
03 14.02.18 260 (З) 10 км  в посл. час переохл. осадки (гололёд){дождь}  10/8 300 м средняя 
[Sc|Ac und]
+0.5 +0 96 +1  1021.9  1.2  725  291  -1.6       
06 14.02.18 тихо ()   0200 м  слаб. дождь со снегом{туман}  ?/?  
+0.4 -0.1 96 1023.5  1.5  726  292           
09 14.02.18 070 (В) 0500 м  слаб. морось{снег, дождь}  ?/?  
+1.4 +0.4 93 +2  1024  0.8  726  291           
12 14.02.18 060 (СВ) 0200 м  туман{снег, морось}  ?/?  
+0.7 +0.1 96 +1  1024.6  0.4  727  292           
15 14.02.18 110 (В) 1000 м  дымка{туман}  10/10 100 м 
[St]
+0.3 -0.1 97 -1  1025  0.2  727  292    +2.3     
18 14.02.18 140 (ЮВ) 0200 м  туман [диам. гололёда 1 мм]  ?/?  
-1.3 -1.7 97 -5  1025.5  0.2  727  294           
21 14.02.18 120 (ЮВ) 0200 м  туман [диам. гололёда 3 мм]  ?/?  
-1.4 -1.8 97 -5  1025.2  -0.3  727  294           
00 15.02.18 130 (ЮВ) 7-10{10}  2000 м  дымка{туман}  10/10 100 м 
[St]
-2 -2.4 97 -6  1025.3  727  295           
03 15.02.18 130 (ЮВ) 10 км    10/10 200 м 
[St]
-1.6 -2 97 -5  1026.2  0.9  727  295  -2      мокрый или
старый снег
50-90% 
06 15.02.18 110 (В) 4000 м  дымка [диам. гололёда 2 мм]  10/10 100 м 
[St]
-1.6 -2 97 -5  1027.3  1.1  728  295           
09 15.02.18 100 (В) 10 км  [диам. гололёда 1 мм]  10/6 300 м средняя 
[St|Ac und]
-0.6 -1.2 96 -4  1028.2  729  294           
12 15.02.18 110 (В) 7-10{10}  20000 м    10/5 300 м средняя 
[St|Ac und]
+0.6 -0.6 92 -3  1027.8  -0.2  729  293           
15 15.02.18 130 (ЮВ) 9-12  20000 м    10/10 300 м 
[St]
+0.1 -0.9 93 -4  1028.9  0.9  730  294    +0.8       
18 15.02.18 130 (ЮВ) 8-10{13}  20000 м    10/10 200 м 
[St]
+0.4 -0.5 94 -4  1029.1  0.3  730  294           
21 15.02.18 140 (ЮВ) 7-11{11}  20000 м    8/8 300 м 
[St]
+0.5 -0.5 93 -3  1028.8  -0.2  730  293           
00 16.02.18 130 (ЮВ) 9-12{12}  20000 м    10/10 200 м 
[St]
+0.1 -0.7 94 -4  1028.8  0.1  730  294           
03 16.02.18 130 (ЮВ) 20000 м    10/10 200 м 
[St]
-0.4 -1.1 95 -5  1028.8  0.1  729  294  -0.4         
06 16.02.18 140 (ЮВ) 10-13{16}  20000 м    10/8 200 м средняя 
[St|Ac und]
-0.3 -1.2 94 -5  1029.4  0.6  730  295  -0.5         
09 16.02.18 140 (ЮВ) 8-10{14}  20000 м    10/8 300 м средняя 
[St|Ac und]
+1.7 -0.2 87 -2  1028.7  -0.2  730  292           
12 16.02.18 140 (ЮВ) 7-11{13}  20000 м    9/5 300 м средняя 
[St|Ac trans]
+3.1 +0.5 83 1027.5  -0.9  729  290           
15 16.02.18 130 (ЮВ) 7{12}  20000 м    10/6 300 м средняя 
[St|Ac und]
+0.8 -0.4 92 -3  1027.9  0.1  729  293    +3.7       
18 16.02.18 130 (ЮВ) 8-11{13}  20000 м    10/6 200 м средняя 
[St|Ac und]
+1.3 +0.1 92 -3  1027.1  -0.7  728  292           
21 16.02.18 130 (ЮВ) 8-11{12}  20000 м    10/6 200 м средняя 
[St|Ac und]
+1.4 +0.1 91 -3  1026.1  -0.9  728  292           
00 17.02.18 130 (ЮВ) 10-12{12}  20000 м    10/8 200 м средняя 
[St|Ac und]
+1 -0.2 92 -4  1024.8  -1.3  727  292           
03 17.02.18 140 (ЮВ) 20000 м    10/8 200 м средняя 
[St|Ac und]
+0.9 -0.1 93 -3  1024  -0.7  726  292  +0.8         
06 17.02.18 140 (ЮВ) 9-11{12}  20000 м    10/8 200 м средняя 
[St|Ac und]
+1.1 +0.4 95 -3  1023.5  -0.7  726  291  +0.4         
09 17.02.18 130 (ЮВ) 9-11{13}  20000 м    8/6 300 м верхняя 
[St|Ci fib]
+4.1 +1 80 1021.7  -1.2  725  288           
12 17.02.18 150 (ЮВ) 7-10{12}  20000 м    8/4 600 м верхняя 
[Sc|Ci fib]
+4.7 +0.8 76 +2  1020.3  -1.2  724  287           
15 17.02.18 130 (ЮВ) 7-10  20000 м    10/8 300 м средняя 
[St|Ac und]
+2.6 +0.5 86 -1  1020.8  -0.1  724  289    +6       
18 17.02.18 130 (ЮВ) 5{11}  20000 м    8/5 300 м средняя 
[St|Ac trans]
+1.4 +0.2 92 -1  1020.8  -0.3  724  290           
21 17.02.18 130 (ЮВ) 20000 м    9/3 200 м средняя 
[St|Ac trans]
+0.6 -0.2 94 -2  1019.6  -1.3  723  291           
00 18.02.18 130 (ЮВ) 20000 м    8/0 средняя 
[Ac trans]
+0.1 -0.8 94 -2  1019.4  -0.3  723  291           
03 18.02.18 260 (З) 20000 м    10/4 300 м средняя 
[St|Ac und]
+1.2 -0.2 90 +1  1019.6  0.5  723  290  +0         
06 18.02.18 250 (З) 2000 м  дымка  10/10 100 м 
[St]
+2.4 +1.8 96 +1  1019.9  0.5  724  289           
09 18.02.18 290 (З) 4000 м  дымка  10/10 100 м 
[St]
+3.6 +2.1 90 +2  1020  0.3  724  287           
12 18.02.18 300 (СЗ) 1000 м  дымка  10/10 100 м 
[St]
+2.4 +1.6 94 -1  1019.6  -0.6  723  289           
15 18.02.18 300 (СЗ) 0500 м  туман  ?/?  
+1.6 +1 96 +1  1021.5  1.6  725  290    +3.8       
18 18.02.18 280 (З) 2000 м  дымка{туман}  10/10 200 м 
[St]
+1.7 +1.1 96 +2  1021.8  0.3  725  290           
21 18.02.18 010 (С) 4000 м  дымка  10/8 300 м средняя 
[St|Ac und]
+0.4 -0.5 94 +1  1021.4  -0.6  724  291           
00 19.02.18 150 (ЮВ) 0200 м  туман  ?/?  
+1 +0.5 96 1020.6  -0.6  724  290           
03 19.02.18 100 (В) 0050 м  туман  ?/?  
+1 +0.6 97 +2  1020.6  -0.1  724  290  -0.1         
06 19.02.18 150 (ЮВ) 0200 м  туман  ?/?  
+1.6 +1.1 96 +2  1020.8  0.4  724  290           
09 19.02.18 160 (Ю) 20000 м  {туман}  10/5 300 м средняя 
[Sc|Ac und]
+5.3 +1 74 +6  1019.6  -0.4  724  286           
12 19.02.18 340 (С) 0200 м  туман  ?/?  
+2.4 +1.9 97 +1  1020.4  0.3  724  289           
15 19.02.18 310 (СЗ) 1000 м  дымка  10/10 50 м 
[St]
+0.7 +0.2 96 -2  1021.9  725  291    +5.8       
18 19.02.18 300 (СЗ) 4000 м  дымка{туман}  10/10 200 м 
[St]
+0.3 -0.9 92 -1  1022.3  0.3  725  292           
21 19.02.18 310 (СЗ) 0200 м  туман  ?/?  
-0.3 -0.8 96 1021.8  -0.6  725  292           
00 20.02.18 340 (С) 0200 м  туман [диам. гололёда 1 мм]  ?/?  
-1.1 -1.4 98 -3  1021.7  -0.3  724  293           
03 20.02.18 260 (З) 20000 м  в посл. час дождь  10/4 1000 м средняя 
[Sc|As op]
+5.1 -1.5 62 +3  1021.5  0.9  725  287  +1.8    0.0     
06 20.02.18 160 (Ю) 20000 м    ясно 
+0.1 -4.1 73 -2  1026.4  0.5  728  294           
09 20.02.18 040 (СВ) 2000 м  слаб. снег [диам. гололёда 2 мм]  10/10 200 м 
[Frnb|Ns]
-1.4 -2 96 -2  1022.3  725  294           
12 20.02.18 050 (СВ) 4000 м  дымка{снег} [диам. гололёда 2 мм]  10/10 200 м 
[St]
-1.2 -1.9 95 -3  1022  725  293           
15 20.02.18 060 (СВ) 10 км    10/10 300 м 
[St]
-1.5 -2.6 92 -3  1022.6  0.4  725  294    -1  0.8     
18 20.02.18 130 (ЮВ) 8-10{13}  20000 м    10/10 200 м 
[St]
+0.4 -0.5 94 -4  1029.1  0.3  730  294           
21 20.02.18 070 (В) 2000 м  дымка  10/10 100 м 
[St]
-2.5 -3 96 -5  1022.8  -0.4  725  295           
00 21.02.18 070 (В) 0500 м  слаб. снег{туман} [диам. изморози 1 мм]  ?/?  
-2.8 -3.2 97 -6  1022.8  0.1  725  295           
03 21.02.18 070 (В) 0500 м  туман{снег}  ?/?  
-3 -3.5 96 -6  1022.6  -0.2  725  296  -3    0.3  <0.5  равномерный
сухой снег
100% 
06 21.02.18 080 (В) 0200 м  переохл. туман{снег} [диам. изморози 2 мм]  ?/?  
-2.2 -2.7 96 -5  1022.7  0.2  725  295  -3.1         
09 21.02.18 090 (В) 4000 м  дымка{туман} [диам. сложн. отлож. 4 мм]  10/10 200 м 
[St]
-1.2 -1.7 96 -4  1021.8  -0.6  724  293           
12 21.02.18 090 (В) 4000 м  дымка{туман} [диам. сложн. отлож. 2 мм]  10/10 100 м 
[St]
-0.6 -1 97 -4  1020.8  -0.8  724  292           
15 21.02.18 110 (В) 0200 м  туман [диам. гололёда 0 мм]  ?/?  
-0.5 -0.9 97 -4  1020.8  724  292    -0.2       
18 21.02.18 100 (В) 0050 м  туман [диам. гололёда 1 мм]  ?/?  
-0.1 -0.5 97 -4  1020.7  0.1  724  292           
21 21.02.18 120 (ЮВ) 2000 м  дымка{туман} [диам. гололёда 2 мм]  10/10 100 м 
[St]
-0.1 -0.4 98 -4  1019.8  -0.7  723  291           
00 22.02.18 120 (ЮВ) 10 км  [диам. гололёда 2 мм]  10/10 200 м 
[St]
-0.1 -0.5 97 -3  1019.2  -0.6  723  291           
03 22.02.18 130 (ЮВ) 0500 м  туман  ?/?  
-0.1 -0.5 97 -4  1018.4  -0.8  722  291  -0.5         
06 22.02.18 130 (ЮВ) 8-10{10}  0200 м  туман  ?/?  
-0.1 -0.5 97 -4  1017.8  -0.6  722  291           
09 22.02.18 130 (ЮВ) 9-11{12}  10 км  слаб. ливневой дождь  10/8 200 м кучево-дожд., средняя 
[Cb cap|Ac und]
+1.3 +0.9 97 -3  1016.6  -0.8  721  289           
12 22.02.18 130 (ЮВ) 5{11}  20000 м  {ливн. осадки, дождь}  10/5 300 м кучево-дожд., средняя 
[Cb calv|Ac und]
+3.6 +1.3 85 +1  1016.4  0.3  721  287           
15 22.02.18 130 (ЮВ) 20000 м  слаб. ливневой дождь  10/6 300 м кучево-дожд., средняя 
[Cb cap|Ac und]
+1.4 +0.1 91 -2  1017.2  0.4  722  289    +4  0.0     
18 22.02.18 140 (ЮВ) 6{10}  4000 м  дымка{ливн. осадки}  10/10 100 м 
[St]
+0.7 +0.1 96 -3  1017.7  0.3  722  290           
21 22.02.18 130 (ЮВ) 4000 м  дымка  10/10 100 м 
[St]
+0.6 +0.1 96 -3  1017.1  -0.5  721  290           
00 23.02.18 130 (ЮВ) 2000 м  дымка  10/10 100 м 
[St]
+0.4 +0 97 -3  1016.6  -0.5  721  290           
06 23.02.18 130 (ЮВ) 4000 м  дымка  10/10 200 м 
[St]
+0.9 +0.3 96 -3  1015.8  -0.3  720  289  +0.1         
09 23.02.18 140 (ЮВ) 6{10}  10 км    10/5 200 м 
[St]
+2.2 +0.6 89 -1  1015.1  -0.4  720  288           
12 23.02.18 140 (ЮВ) 7{11}  20000 м    10/5 300 м средняя 
[St|Ac und]
+3.5 +0.5 81 1013.3  -1.5  719  286           
15 23.02.18 150 (ЮВ) 8-10  10 км    10/6 200 м средняя 
[St|Ac und]
+1.3 +0.2 92 -3  1013  -0.7  719  288    +4.3       
18 23.02.18 150 (ЮВ) 4{10}  20000 м    10/10 100 м 
[St]
+1.2 +0.4 94 -1  1013.7  0.6  719  288           
21 23.02.18 140 (ЮВ) 2000 м  дымка{ливн. осадки}  10/8 600 м кучево-дожд., средняя 
[Cb cap|Ac und]
+1.1 +0.6 96 1013.1  -0.5  719  288           
00 24.02.18 280 (З) 2000 м  дымка{ливн. осадки}  10/8 300 м средняя 
[Sc diur, vesp|Ac und]
+1.6 +1.1 96 +1  1013  719  288           
03 24.02.18 310 (СЗ) 4000 м  дымка{туман}  10/6 200 м 
[St]
+0.4 -0 97 -1  1013.7  0.4  719  289  +0.4       
06 24.02.18 310 (СЗ) 4000 м  дымка{туман}  ясно 
-0.1 -0.7 96 -2  1014.3  0.4  719  290  -0.6         
09 24.02.18 070 (В) 4000 м  дымка  10/10 100 м 
[St]
+1.8 +1 94 +1  1013.5  -0.3  719  288           
12 24.02.18 030 (СВ) 4000 м  дымка  10/8 100 м средняя 
[St|Ac und]
+1.5 +0.6 94 1013  -0.6  719  288           
15 24.02.18 060 (СВ) 0500 м  туман  ?/?  
-0.1 -0.6 96 -1  1013.5  0.2  719  290    +2.4       
18 24.02.18 110 (В) 0200 м  туман [диам. гололёда 0 мм]  ?/?  
-0.4 -0.7 98 -1  1013  -0.5  718  290           
21 24.02.18 160 (Ю) 0200 м  туман [диам. гололёда 1 мм]  ?/?  
+0.9 +0.5 97 1011.5  -1.1  717  288           
00 25.02.18 030 (СВ) 0200 м  туман  ?/?  
+0.2 -0.2 97 +1  1011.4  -0.2  717  289           
03 25.02.18 040 (СВ) 0200 м  морось{туман}  ?/?  
+0.1 -0.3 97 +1  1011.1  -0.3  717  289  -0.5    0.4     
06 25.02.18 050 (СВ) 0200 м  туман{снег, морось}  ?/?  
+0.5 +0.1 97 -1  1010.5  -0.5  717  288           
09 25.02.18 330 (СЗ) 0200 м  туман [диам. гололёда 1 мм]  ?/?  
-1.2 -1.5 98 -3  1010.7  -0.2  716  290           
12 25.02.18 360 (С) 0200 м  туман [диам. гололёда 2 мм]  ?/?  
-0.1 -0.4 98 -1  1010.3  -0.2  716  289           
15 25.02.18 360 (С) 0050 м  туман [диам. гололёда 0 мм]  ?/?  
-1.2 -1.5 98 -2  1011.2  0.6  717  290    +0.5  0.3     
18 25.02.18 020 (С) 0200 м  слаб. снег{туман} [диам. гололёда 2 мм]  ?/?  
-1.7 -2 98 -3  1011.4  0.1  717  291           
21 25.02.18 350 (С) 0200 м  туман{снег} [диам. гололёда 4 мм]  ?/?  
-2.9 -3.3 97 -5  1011.8  -0.1  717  292           
00 26.02.18 320 (СЗ) 0500 м  переохл. туман{снег} [диам. сложн. отлож. 6 мм]  ?/?  
-5.4 -6.1 95 -8  1013.6  1.2  718  296           
03 26.02.18 300 (СЗ) 1000 м  слаб. снег{туман}  10/10 200 м 
[Frnb|Ns]
-7.3 -8.1 94 -10  1016.1  719  299  -7.3       
06 26.02.18 280 (З) 4000 м  слаб. снег [диам. сложн. отлож. 6 мм]  10/10 300 м 
[Frnb|Ns]
-8.3 -9.2 93 -11  1018.4  1.9  721  300  -9         
09 26.02.18 290 (З) 20000 м  {снег} [диам. сложн. отлож. 5 мм]  9/3 300 м средняя 
[St|Ac trans]
-5.6 -6.5 93 -8  1018.7  0.9  722  297           
12 26.02.18 330 (СЗ) 20000 м  {снег}  8/3 300 м средняя 
[St|Ac trans]
-5.5 -6.5 93 -9  1019.5  0.7  722  298           
15 26.02.18 020 (С) 4000 м  дымка  8/3 300 м средняя 
[St|Ac trans]
-8.2 -9.2 92 -10  1021.8  0.7  723  301    -5     
18 26.02.18 100 (В) 2000 м  дымка  10/5 200 м средняя 
[St|As trans]
-8 -9 93 -11  1021.2  -0.5  723  301           
21 26.02.18 100 (В) 1000 м  дымка  10/10 100 м 
[St]
-8.4 -9.4 92 -11  1019.9  -1.4  722  301           
00 27.02.18 070 (В) 2000 м  дымка{туман} [диам. изморози 1 мм]  10/10 100 м 
[St]
-9.9 -11.1 91 -15  1018.8  -1.3  721  302           
03 27.02.18 090 (В) 4000 м  дымка  10/10 200 м 
[St]
-8.7 -9.7 92 -13  1017.7  -0.8  720  301  -10         
06 27.02.18 100 (В) 4000 м  дымка [диам. изморози 1 мм]  10/10 200 м 
[St]
-8 -8.9 93 -13  1017  -0.4  720  300           
09 27.02.18 100 (В) 10-13{14}  10 км    10/8 300 м средняя 
[St|Ac und]
-6 -6.8 94 -12  1015.3  -1.2  719  297           
12 27.02.18 110 (В) 11-13{14}  10 км    10/10 200 м 
[St]
-4.4 -5 96 -11  1014.1  -0.8  718  295           
15 27.02.18 110 (В) 8-10  10 км    10/10 100 м 
[St]
-4.4 -5.1 95 -10  1015.7  1.5  720  295    -4.2       
18 27.02.18 120 (ЮВ) 5{10}  10 км    10/10 200 м 
[St]
-4.5 -5.1 96 -8  1018.7  2.7  722  296           
21 27.02.18 130 (ЮВ) 7{10}  10 км    10/10 100 м 
[St]
-4.3 -4.9 96 -9  1018.8  0.2  722  296           
00 28.02.18 160 (Ю) 4{10}  20000 м    5/3 300 м средняя 
[St|Ac trans]
-5.5 -6.2 95 -9  1019.1  722  297           
03 28.02.18 220 (ЮЗ) 20000 м    ясно 
-5.5 -6.5 93 -8  1020.7  1.6  723  298  -5.5      сухой снег
50-90% 
06 28.02.18 180 (Ю) 20000 м    8/6 600 м средняя, верхняя 
[Sc|Ac As|Ci fib]
+2.5 +1.7 94 +3  1019.9  0.9  724  289           
09 28.02.18 110 (В) 20000 м    3/0 средняя, верхняя 
[Ac trans|Ci fib]
+5.4 +0.1 69 +4  1018.3  -1  723  286           
12 28.02.18 120 (ЮВ) 7-10{11}  20000 м    3/0 верхняя 
[Ci fib]
+6.4 +0.5 66 +4  1016.3  -1.6  722  284           
15 28.02.18 130 (ЮВ) 10-14  20000 м    10/8 300 м средняя, верхняя 
[St|Ac As|Ci fib]
+0.4 -1.2 89 -4  1016.5  -1  721  290    +7.8       
18 28.02.18 130 (ЮВ) 11-15{15}  20000 м    10/10 200 м 
[St]
-0 -0.9 94 -5  1015.3  -1.2  720  290           
21 28.02.18 120 (ЮВ) 8-11{15}  20000 м    10/10 200 м 
[St]
+0.5 -0.6 92 -4  1013.9  -1.2  719  289           
00 01.03.18 120 (ЮВ) 13-16{16}  20000 м    10/10 200 м 
[St]
+0.7 -0.5 92 -5  1011.6  -2.2  717  288           
03 01.03.18 120 (ЮВ) 10  20000 м    10/10 300 м 
[St]
+0.6 -1.1 88 -4  1011.6  717  288  -0         
06 01.03.18 160 (Ю) 5{15}  20000 м    10/10 300 м 
[St]
+0.4 -1.3 88 -3  1016  720  290           
09 01.03.18 280 (З) 4000 м  слаб. дождь{снег}  10/10 200 м 
[Frnb|Ns]
+1.5 +0.6 94 +1  1017.8  722  289           
12 01.03.18 300 (СЗ) 0500 м  сильн. снег{дождь}  10/10 100 м 
[Frnb|Ns]
-0.1 -0.7 96 -2  1020.2  1.9  723  292           
15 01.03.18 310 (СЗ) 2000 м  снег  10/10 100 м 
[Frnb|Ns]
-0.9 -1.5 96 1021.9  1.4  724  293    +1.5     
18 01.03.18 330 (СЗ) 4000 м  слаб. снег  10/10 300 м 
[Frnb|Ns]
-1.5 -2.2 95 -1  1023.4  1.3  725  294           
21 01.03.18 280 (З) 10-17{19}  20000 м  слаб. снег  8/8 300 м 
[St]
-1.6 -4.1 83 -7  1018.1  0.5  722  293           
00 02.03.18 270 (З) 20000 м  {снег}  4/0 средняя 
[Ac trans]
-4.1 -6.1 86 -6  1024.6  -0.5  726  298           
03 02.03.18 300 (СЗ) 20000 м    3/0 средняя 
[Ac trans]
-4.8 -6.8 86 -7  1025  0.2  726  298  -5.7    равномерный
сухой снег
100% 
06 02.03.18 220 (ЮЗ) 20000 м    1/0 верхняя 
[Ci fib]
-2.6 -5.3 82 -4  1024.9  0.3  726  296  -6.6         
09 02.03.18 070 (В) 20000 м    5/5 600 м 
[Sc]
+0.2 -5.2 67 -1  1023  -1.2  725  293           
12 02.03.18 060 (СВ) 20000 м    8/8 600 м 
[Sc]
+1 -3.4 72 -1  1021.5  -1.2  725  291           
15 02.03.18 080 (В) 20000 м    8/3 1000 м верхняя 
[Sc|Ci]
-1.2 -3.9 82 -5  1020.8  -1.2  724  293    +2.1       
18 02.03.18 100 (В) 0500 м  туман  ?/?  
-2.9 -3.3 97 -7  1020.3  -0.7  723  295           
21 02.03.18 110 (В) 2000 м  дымка{туман} [диам. изморози 1 мм]  10/10 100 м 
[St]
-3.6 -4.2 96 -7  1018.5  -1.8  722  295           
00 03.03.18 110 (В) 4000 м  дымка{туман} [диам. изморози 1 мм]  10/4 300 м средняя 
[St|Ac und]
-3.4 -4 96 -6  1016.6  -1.8  720  294           
03 03.03.18 130 (ЮВ) 10 км    10/6 1000 м средняя 
[Sc|Ac und]
-2.3 -3.1 94 -6  1014.5  -1.8  719  292  -3.7         
06 03.03.18 140 (ЮВ) 7-10{10}  20000 м    10/4 1000 м средняя 
[Sc|Ac und]
-1 -3.7 82 -5  1012.9  -1.3  718  291           
09 03.03.18 130 (ЮВ) 11-15{15}  20000 м    8/0 средняя 
[Ac trans]
+4.3 -2.8 60 1009  -2.6  716  284           
12 03.03.18 130 (ЮВ) 8{15}  20000 м    9/0 средняя 
[Ac trans]
+3.8 -2.3 64 1007.2  -1.8  715  284           
15 03.03.18 140 (ЮВ) 7{11}  20000 м    10/0 средняя 
[Ac und]
+1.5 -3 72 -2  1006.3  -1.2  714  286    +5.1       
18 03.03.18 160 (Ю) 8-10{12}  20000 м    10/0 средняя 
[Ac und]
-0.8 -3.3 83 -5  1006.8  0.1  714  289           
21 03.03.18 140 (ЮВ) 8{11}  20000 м    8/0 средняя 
[Ac trans]
-1 -1.9 94 -5  1004.3  -2.5  712  288           
00 04.03.18 150 (ЮВ) 20000 м    10/0 средняя 
[As trans]
-0.1 -1.4 91 -2  1001.6  -2.3  710  286           
03 04.03.18 250 (З) 10 км  слаб. ливневой дождь  10/8 600 м кучево-дожд., средняя 
[Cb cap|Ac und]
+5.5 +4 90 +2  1004.6  713  281  -1.3       
06 04.03.18 270 (З) 6{13}  20000 м  {ливн. осадки}  8/1 200 м средняя, верхняя 
[St|Ac As|Ci]
+7.5 +3.4 75 +5  1004.3  -0.1  713  279           
Время (UTC), дата Ветер
(°,м/с) 
Видим.   Явления Облачность Т
(°С)
Тd
(°С)
f(%) Тe
(°С)
Pmin
(гПа)
dP
(гПа)
Po
(мм)
O2
(г/м3)
Тmin Tmax R s Состояние
почвы